Location: PSU-Greenbush Astrophysical Observatory
(37.5140°N, 94.9880°W)
Time: 20:34:15
(UTC-06:00)

Altair - Pass Details

Date: 28 January 2020
Orbit: 1502 x 1682 km, 47.2° (Epoch: 19 February)

Event Time Altitude Azimuth Distance (km) Brightness Sun altitude
Rises 08:24:18 0° 244° (WSW) 4,843 9.8 9.3°
Reaches altitude 10° 08:27:24 10° 247° (WSW) 3,878 9.3 9.8°
Maximum altitude 08:37:25 75° 332° (NNW) 1,724 7.9 11.5°
Drops below altitude 10° 08:47:38 10° 58° (ENE) 3,947 10.0 13.2°
Sets 08:50:50 0° 61° (ENE) 4,932 10.5 13.7°
